RH
75 67 61 36 18 32 39 33 53 39 55 52 43 37 39 64 55 51 61 77 87 90 93 94 89 87 84 83 85 87 87 88 86 82 80 80 79 74 71 67 68 69 69 68 72 69 69 71 71
63 59 44 37 25 25 22 39 35 35 35 32 34 41 42 55 79 76 77 69 88 89 91 94 91 86 85 86 85 87 87 86 85 84 83 80 79 79 76 73 70 74 72 68 73 74 74 73 73
59 46 32 32 36 20 24 32 35 29 29 31 34 38 57 69 67 79 67 87 93 94 93 90 88 86 84 86 87 86 85 84 86 86 85 83 80 80 78 77 76 74 76 76 75 81 79 76 76
54 39 43 31 36 33 39 35 30 27 23 25 33 42 38 64 62 60 72 90 93 94 94 93 89 86 84 83 84 85 83 81 83 84 86 82 81 80 78 82 84 84 83 75 74 81 82 81 78
50 45 37 38 35 35 47 33 28 27 33 29 30 33 30 44 51 56 58 76 88 87 89 90 87 86 86 84 82 82 84 84 83 82 81 82 80 78 83 87 88 86 83 80 73 80 83 82 80
37 40 29 33 30 33 52 44 32 35 35 29 33 36 33 49 45 54 48 51 67 72 76 79 81 83 83 87 87 83 81 82 84 83 82 80 83 82 83 86 87 84 81 78 75 80 83 83 78
37 29 29 45 33 32 40 43 56 41 44 39 37 37 37 38 35 53 50 46 54 57 55 60 71 77 81 84 86 88 93 92 88 87 86 88 87 85 85 87 86 82 79 77 78 79 84 85 81
57 46 55 45 36 31 43 41 40 42 37 34 36 37 34 32 35 40 47 51 48 46 47 52 54 56 72 80 76 80 85 84 84 83 78 78 90 97 92 86 89 87 84 84 83 81 81 86 87
45 37 33 32 42 36 43 41 40 43 44 41 39 39 31 34 38 39 43 42 47 46 49 51 51 54 56 64 62 74 74 75 76 81 83 86 89 92 95 97 94 88 89 89 88 85 87 90 93
42 33 26 38 42 44 46 53 45 43 41 41 37 30 34 39 44 46 47 48 46 44 46 54 54 55 58 51 62 66 59 75 81 86 91 90 93 84 80 97 99 98 94 92 89 89 90 92 98
54 32 46 45 44 52 53 52 48 50 42 38 35 36 40 42 46 48 48 48 48 48 58 50 58 56 60 67 76 75 77 74 69 68 80 82 86 85 86 92 95 99 99 97 97 95 95 96 98
51 43 50 50 52 51 51 45 49 50 38 39 43 44 45 39 44 46 47 49 50 51 52 56 62 60 60 71 75 70 72 67 67 55 59 66 71 79 61 62 79 85 88 97 98 98 98 98 96
53 48 50 51 50 51 48 51 49 47 42 42 35 32 38 44 42 44 49 54 54 52 54 59 69 70 71 75 85 88 87 90 78 69 57 62 60 61 65 67 70 79 84 85 88 94 97 98 96
49 51 51 53 50 52 55 54 50 39 37 34 32 34 40 44 45 46 55 61 57 55 60 67 66 75 75 80 81 84 82 74 86 80 68 57 61 64 71 71 73 76 82 84 87 88 94 98 97
54 49 46 48 46 48 46 43 48 40 38 32 33 34 43 46 44 44 51 61 58 58 58 60 63 71 74 77 79 80 78 71 81 86 61 65 67 70 73 77 75 78 82 84 87 85 87 90 94
44 47 44 40 42 43 38 32 33 37 40 35 33 36 45 48 47 43 44 51 57 57 62 62 59 71 75 81 79 71 71 69 69 71 72 68 74 79 76 80 81 83 86 88 90 89 89 91 93
33 32 38 33 47 44 41 34 33 37 35 35 37 43 50 53 48 44 49 49 60 71 76 76 74 72 73 70 74 74 75 78 80 82 80 73 75 79 85 88 89 90 91 92 91 91 92 93 94
37 42 39 39 40 45 46 43 37 36 36 41 48 53 58 55 52 48 47 50 60 74 78 79 77 79 80 84 83 84 83 84 91 92 91 81 80 79 84 90 91 91 92 92 94 93 94 94 95
51 56 52 46 44 45 46 48 41 42 48 58 63 58 61 60 52 55 47 48 50 63 76 79 77 78 82 84 85 83 85 91 94 94 88 86 82 81 89 92 91 91 92 93 91 94 93 95 93
54 60 45 42 44 51 52 52 44 44 53 53 58 61 62 64 60 52 52 49 51 57 70 75 74 75 77 84 90 94 95 95 95 94 91 89 89 86 86 91 93 93 95 94 94 94 96 96 94
46 53 54 51 50 58 61 56 40 43 60 56 56 69 65 67 64 59 55 56 57 54 67 68 71 75 76 82 92 94 94 95 93 93 93 91 89 90 90 90 93 94 95 97 96 97 96 98 85
42 42 50 52 62 64 61 61 60 40 46 54 50 60 67 69 70 69 66 64 67 64 74 73 71 76 75 84 89 89 94 94 95 94 95 95 91 92 91 90 91 93 95 95 96 87 95 93 91
42 51 59 65 77 77 71 74 57 39 35 41 48 56 62 50 54 54 55 67 72 74 77 81 80 78 79 83 88 94 93 95 95 96 94 93 92 91 92 90 91 93 94 94 93 82 81 90 97
48 62 72 82 77 81 74 70 61 38 30 55 61 50 42 48 48 47 47 48 52 57 65 78 79 79 81 84 84 89 93 93 95 94 95 95 94 93 91 91 94 93 94 93 91 77 78 84 86
54 63 76 71 85 79 78 62 61 50 41 48 47 40 46 52 47 48 50 51 50 53 56 62 71 69 74 77 81 85 90 92 94 94 96 94 95 94 90 91 94 95 92 91 86 85 83 79 85
62 68 82 66 84 83 73 75 60 46 55 39 38 44 47 49 49 53 56 56 54 52 55 55 58 60 62 63 67 74 78 91 92 93 94 96 95 93 92 94 94 94 92 90 88 92 88 77 79
65 77 69 72 88 97 81 70 59 46 43 40 45 50 54 46 50 55 57 58 58 57 57 58 59 57 57 60 63 62 66 71 79 82 90 94 93 85 90 93 94 94 94 93 92 94 93 87 94
59 61 73 89 86 92 84 80 70 52 43 40 56 54 51 54 54 56 57 58 59 60 60 58 60 59 58 61 61 58 63 65 70 78 78 82 84 88 91 92 94 94 95 95 94 94 94 96 90
65 69 71 78 88 94 97 79 63 54 42 45 66 60 58 60 50 55 58 58 60 62 62 61 61 62 62 64 64 66 67 66 66 70 72 76 83 82 86 87 88 92 95 95 95 95 94 96 90
71 70 66 89 84 92 94 84 55 57 43 51 68 57 56 58 51 57 60 62 62 63 63 61 62 64 65 65 66 67 67 68 66 68 70 74 77 75 84 85 90 91 93 94 96 95 89 95 90
Wind_Speed
6 5 3 6 6 6 2 3 0 3 3 3 2 2 1 1 1 3 4 5 1 5 4 4 6 6 7 7 6 6 7 8 9 11 12 11 11 11 11 10 9 8 8 7 10 10 9 9 8
4 3 6 3 7 4 6 3 1 0 2 6 2 1 4 1 2 5 4 6 2 4 3 3 6 8 8 7 9 8 8 9 10 10 10 11 11 12 12 11 10 8 7 8 5 8 10 10 10
1 4 5 6 4 4 3 1 2 3 4 5 4 4 2 2 4 2 6 6 4 3 1 2 5 7 8 8 6 6 7 9 10 10 10 11 11 11 12 13 12 10 7 5 3 11 12 11 11
3 6 6 6 0 1 1 3 3 5 4 7 3 2 3 1 4 5 6 4 3 3 4 4 7 7 8 9 9 9 8 9 10 9 10 11 11 10 11 13 11 10 8 6 4 8 12 12 11
5 4 5 4 2 3 2 3 6 3 2 4 6 4 6 6 6 6 6 3 1 3 4 4 7 7 9 10 11 11 12 11 9 10 10 11 12 10 10 10 10 11 10 9 8 7 13 12 11
5 4 6 1 4 3 0 3 3 3 2 5 4 4 4 3 6 9 7 7 6 7 6 6 7 8 7 7 9 12 13 12 12 11 11 12 12 13 12 11 11 11 11 10 10 7 13 13 12
7 5 3 3 3 4 2 7 2 3 4 2 2 3 3 4 7 6 7 6 5 5 5 6 6 7 9 8 6 4 6 3 5 12 14 13 13 14 13 12 13 12 12 11 10 9 10 12 12
6 6 3 2 1 4 2 6 1 1 5 8 1 3 5 5 10 9 5 6 6 5 5 6 5 5 5 5 6 1 1 2 3 6 10 14 11 11 13 13 13 13 12 11 10 9 9 11 10
3 6 2 4 4 3 2 6 2 2 3 4 3 2 4 8 8 8 7 8 6 6 7 6 6 6 5 5 4 2 2 4 4 1 5 9 6 5 7 8 9 14 13 12 11 10 9 7 8
6 4 7 3 2 2 3 0 3 5 5 3 3 5 6 8 6 7 7 7 7 8 9 6 7 7 4 3 2 3 2 1 1 2 5 3 5 5 6 6 8 6 9 9 10 12 10 8 4
1 4 3 1 2 0 2 3 2 2 4 6 5 8 10 6 9 7 7 5 7 7 7 9 6 5 5 1 2 2 2 2 1 0 1 2 2 5 3 3 4 1 3 2 4 5 4 6 4
2 1 1 1 2 1 3 4 4 5 7 0 5 6 5 8 8 8 9 9 10 10 10 9 6 5 3 2 3 2 3 3 0 0 3 3 2 2 2 1 2 3 3 3 3 1 2 5 5
2 2 1 3 6 6 2 6 5 8 9 6 5 7 6 6 7 7 6 6 7 7 8 7 6 3 1 1 2 2 1 2 4 3 2 3 2 1 2 2 3 3 3 4 4 3 2 1 1
1 3 6 3 4 3 2 3 1 3 3 2 5 7 5 6 5 5 8 8 7 7 8 8 6 2 5 4 5 3 4 4 4 3 2 3 2 1 1 3 3 3 3 3 3 3 4 4 3
1 5 4 1 4 2 1 2 6 4 2 7 8 7 6 6 6 5 6 6 6 6 6 8 4 0 2 4 5 3 3 4 4 3 4 4 5 6 3 3 4 3 3 4 4 4 3 3 3
3 5 5 2 6 2 3 8 5 4 1 10 8 7 6 7 5 6 7 6 7 7 8 7 5 2 4 3 4 2 2 1 2 2 3 4 5 5 4 3 3 4 3 2 2 2 3 3 3
7 1 3 9 4 4 1 8 5 2 7 8 6 5 6 7 7 5 7 6 6 6 7 8 7 5 3 2 3 2 3 3 3 2 3 4 5 4 3 3 3 3 2 2 1 1 0 2 3
2 2 3 6 3 4 6 14 9 8 6 5 5 4 6 7 5 7 8 7 6 5 6 6 5 6 4 3 3 1 2 2 1 3 3 4 2 3 2 2 3 4 3 3 2 1 1 3 4
2 2 4 5 2 7 3 9 12 9 1 3 4 6 6 7 6 6 6 7 7 4 6 5 5 4 2 2 2 2 2 1 2 1 1 3 4 4 3 3 3 2 3 3 2 2 2 2 1
3 3 4 4 2 3 7 12 5 6 4 4 4 5 7 7 8 7 7 7 7 7 5 5 4 4 3 1 2 2 1 1 2 2 2 3 2 3 3 3 2 3 3 3 2 2 2 2 2
3 2 2 3 8 1 8 4 5 3 2 2 4 3 4 5 8 8 8 6 7 7 6 5 5 5 3 1 1 1 1 1 1 1 1 1 2 4 5 4 3 4 2 2 3 3 3 3 2
1 1 1 4 5 3 5 6 4 3 3 2 6 6 6 7 6 5 7 7 7 6 6 5 5 5 3 3 2 1 1 2 2 2 2 4 4 5 5 5 4 4 3 3 3 3 3 3 4
2 2 1 1 2 2 3 4 8 2 3 0 5 6 6 6 6 7 8 7 6 6 6 4 4 5 5 5 4 3 4 3 3 3 5 5 5 5 5 5 4 4 3 3 4 5 3 3 3
3 3 3 3 2 3 1 4 7 4 4 3 2 4 5 7 8 7 6 7 7 7 7 6 6 4 5 4 5 5 6 6 5 4 4 4 4 4 5 5 5 5 4 4 3 4 4 5 5
6 6 5 7 6 5 1 1 10 3 3 4 3 4 6 5 6 7 8 8 8 9 8 7 7 7 7 6 5 4 5 6 6 6 4 6 4 3 6 5 5 4 5 5 4 3 4 5 5
4 2 6 5 3 6 4 8 6 3 3 4 4 3 3 5 4 5 6 6 6 7 8 8 8 8 8 8 8 6 4 2 4 5 5 4 4 5 6 6 6 6 6 5 5 4 4 4 5
1 3 1 4 1 2 4 8 6 3 3 4 6 8 7 4 4 5 6 6 6 7 7 7 7 7 8 7 6 7 6 7 5 7 5 4 5 5 6 6 6 6 6 6 6 4 5 3 5
2 4 4 3 2 6 6 6 6 6 8 6 4 5 7 4 3 4 5 6 6 5 6 7 7 7 7 7 7 7 7 6 6 5 7 6 7 6 6 7 7 7 7 7 6 6 5 5 5
2 1 4 2 4 4 4 8 6 7 8 9 3 4 6 5 4 3 5 5 5 5 6 6 6 6 7 6 6 7 7 7 7 6 7 6 6 7 7 7 8 8 7 7 8 7 6 6 6
2 3 5 5 5 4 2 9 4 5 4 7 2 4 5 1 6 1 4 4 5 5 6 6 7 6 6 6 6 7 7 7 7 7 7 7 8 8 8 8 7 8 8 7 8 9 9 8 8
Wind_Direction
332 341 59 42 57 63 278 266 150 32 37 340 319 52 197 96 110 227 288 310 251 163 178 187 194 193 193 195 218 223 199 190 192 190 181 177 173 172 169 169 173 172 179 180 161 161 154 146 143
331 11 43 75 84 63 275 301 18 69 331 310 311 41 48 49 309 308 343 339 105 151 165 184 216 206 208 209 218 213 223 206 205 205 200 186 193 184 183 180 180 186 184 181 176 183 164 160 155
75 41 76 87 93 164 241 321 334 3 27 12 13 64 25 323 332 291 323 339 39 53 221 227 232 227 231 238 219 219 219 227 227 214 218 210 201 197 198 195 185 188 197 199 181 167 165 167 165
46 13 35 77 213 249 315 349 296 357 9 35 342 32 336 357 310 303 305 15 55 6 345 280 244 239 251 253 243 242 236 221 215 224 225 210 210 193 210 206 187 179 186 212 225 203 177 169 172
36 54 54 52 313 314 9 2 335 21 41 343 351 327 316 336 328 345 339 321 268 287 299 304 298 292 277 266 248 244 249 248 236 216 214 229 207 195 204 193 188 186 196 204 214 222 188 178 177
45 89 55 325 298 296 18 355 310 29 2 322 27 345 273 345 26 327 339 334 323 313 313 313 316 312 310 314 312 265 251 255 270 256 247 239 244 205 206 198 194 204 203 203 207 227 199 188 184
101 77 153 189 268 306 301 329 51 330 310 297 301 314 286 331 345 339 326 336 337 324 322 317 320 326 326 321 329 345 1 33 349 2 350 320 295 247 215 203 199 203 207 206 206 207 200 198 189
99 91 109 243 257 271 348 341 173 40 285 316 187 255 307 308 329 329 332 325 324 305 280 280 290 298 303 311 315 278 156 84 31 344 350 342 321 313 261 216 209 200 203 202 203 209 215 202 197
102 64 162 218 170 270 7 19 309 326 278 317 299 250 274 310 336 352 350 342 341 313 294 281 278 277 266 270 279 297 176 160 153 201 296 311 309 326 307 288 239 207 197 199 201 209 212 209 206
78 106 213 194 194 258 329 126 315 346 347 302 308 299 313 328 354 345 331 316 310 302 301 276 271 263 270 292 321 349 346 110 187 207 205 239 317 336 324 311 278 263 231 224 217 208 208 211 195
125 162 189 300 222 308 284 289 221 267 310 221 280 305 323 334 342 346 330 288 281 290 288 291 281 284 281 2 20 4 350 344 45 107 245 189 105 304 335 338 335 306 272 239 243 230 221 200 191
81 99 160 287 89 352 256 300 281 188 237 79 279 279 298 325 335 334 333 324 323 320 297 302 307 268 255 203 149 116 20 328 14 273 112 134 143 221 311 343 13 23 13 345 350 2 265 240 205
58 348 315 309 301 254 281 249 244 264 258 279 304 331 318 329 338 326 327 310 317 304 303 315 302 326 145 224 2 58 86 325 302 335 29 86 91 30 317 321 36 29 22 26 9 0 346 21 222
313 309 289 303 278 243 273 281 108 267 15 353 342 322 337 334 330 323 359 336 332 320 351 340 360 80 102 148 157 181 233 149 279 283 338 29 53 57 22 360 14 32 21 19 14 359 344 330 299
26 345 331 12 340 316 35 274 227 248 300 301 325 351 347 333 348 345 301 302 326 332 334 1 358 254 160 184 185 183 27 24 297 299 336 16 12 13 2 354 350 20 31 1 4 355 348 337 319
42 56 28 311 359 6 53 279 236 199 7 305 334 347 339 341 321 312 318 304 335 344 348 343 358 349 304 0 347 354 83 120 256 272 292 35 31 329 359 6 3 351 32 31 6 347 334 321 318
9 21 356 318 71 333 7 267 253 212 301 301 336 338 337 344 344 338 330 321 327 341 347 354 353 5 334 329 55 31 80 53 324 339 4 354 22 1 19 19 354 355 8 20 24 335 358 310 306
299 354 280 249 331 3 268 264 285 279 256 288 331 331 1 354 324 321 327 328 334 347 359 8 11 49 49 33 60 20 64 80 330 350 348 28 26 351 345 22 338 340 342 339 345 279 269 241 272
124 214 244 263 293 325 247 290 311 326 57 57 81 18 2 347 316 316 328 333 348 1 358 8 1 22 84 73 47 29 10 343 7 355 316 339 326 325 6 12 308 325 315 299 299 294 290 293 282
218 253 292 281 297 322 335 310 312 11 41 95 78 27 4 345 345 343 345 342 337 323 322 339 350 349 2 30 150 149 181 246 235 259 269 279 249 244 246 242 264 282 292 313 308 247 288 265 232
220 204 3 255 321 71 309 327 1 16 64 52 35 28 13 335 331 333 344 333 332 339 338 332 329 324 326 315 331 349 111 301 300 261 273 211 259 259 252 237 238 246 234 271 278 265 230 255 222
35 188 73 319 26 292 11 276 315 338 327 27 27 22 353 341 330 318 333 333 337 332 340 338 333 334 328 334 307 286 262 255 230 252 254 280 273 265 248 245 252 245 251 265 262 246 237 265 277
228 32 319 134 123 42 8 71 267 295 215 53 27 3 348 345 342 337 336 324 322 333 333 335 337 336 338 340 327 313 298 262 284 287 289 284 281 267 268 253 252 254 257 261 279 300 277 262 267
331 95 65 60 85 29 181 124 275 200 195 149 57 357 351 351 352 356 348 350 355 357 1 355 2 1 355 353 338 325 308 309 311 299 293 289 287 284 267 255 242 245 238 247 254 282 280 289 282
33 40 338 353 7 227 6 103 248 235 172 132 116 8 4 4 11 8 15 12 5 9 7 6 14 15 4 10 1 337 308 301 290 288 280 297 291 278 277 264 250 232 228 233 234 234 269 263 277
40 94 145 247 255 279 312 242 261 225 102 103 77 20 19 24 22 25 19 7 14 7 11 17 17 11 5 10 5 355 343 297 283 279 284 268 262 266 269 264 261 249 235 233 228 225 235 252 267
28 43 155 87 338 26 247 286 296 151 130 116 75 20 15 11 37 32 20 22 10 13 12 10 11 8 4 357 353 353 349 346 327 315 288 273 273 276 268 255 255 252 243 234 226 225 226 236 261
81 153 41 9 317 275 284 276 246 200 196 166 84 4 329 348 118 41 19 11 359 2 358 11 8 1 346 347 350 344 333 337 324 320 321 314 301 287 285 272 254 243 236 232 226 231 223 226 242
71 55 60 137 172 211 290 262 219 221 193 168 141 335 304 304 215 18 354 351 348 350 356 348 357 349 347 344 337 338 331 325 320 322 317 314 307 304 297 286 279 259 239 222 223 225 223 231 245
151 189 156 135 255 233 194 270 343 299 201 159 216 274 285 126 144 4 348 335 346 347 345 346 342 346 333 318 320 321 317 322 326 320 311 308 308 310 296 293 277 269 257 244 230 233 232 224 232